Terug naar catalogus

STARLINK-36395

ActiefCommunicatieSSO
NORAD 67554·PAYLOAD·🇺🇸 United States

Gelanceerd Jan 22, 2026 vanaf Vandenberg Space Force Base

Loading…

Volgende Passages (komende 24 uur)

TLE

VersSource: CelesTrak SupGP

Epoch: Sep 15, 2026, 02:58 UTC

1 67554C 26014Y   26258.12409722  .00080211  00000+0  24890-2 0  2584
2 67554  97.2848 146.4634 0001833  95.4469 289.7966 15.33409467    17

Volg STARLINK-36395 in realtime met AllMySat

Download on the App Store